Weather Service Report


263 
ASCA42 TJSJ 281811
RWRPR 
PUERTO RICO/U.S. VIRGIN ISLANDS HOURLY WEATHER ROUNDUP
NATIONAL WEATHER SERVICE SAN JUAN PR
200 PM AST THU AUG 28 2014

PRZ001-004-281900-
PUERTO RICO
  
CITY           SKY/WX    TMP DP  RH WIND       PRES   REMARKS
SAN JUAN LMM   MOSUNNY   90  77  66 NE20G29   29.96F HX 102           
MAYAGUEZ       PTSUNNY   93  73  52 E13       29.93  HX 102           
AGUADILLA      MOSUNNY   86  75  70 E26G33    29.96F HX  95           
CEIBA          MOSUNNY   88  75  66 E14G23    29.99F HX  97           
$$

PRZ006-007-281900-
U.S. VIRGIN ISLANDS
  
CITY           SKY/WX    TMP DP  RH WIND       PRES   REMARKS
CHRISTIANSTED  SUNNY     88  75  66 E16       29.98  HX  97           
$$

HOURLY WEATHER ROUNDUP FOR THE NEWS MEDIA
  
CITY           SKY/WX    TMP DP  RH WIND       PRES   REMARKS
MIAMI          PTSUNNY   91  72  53 SW8       29.98F HX  98           
ORLANDO        PTSUNNY   93  69  45 CALM      30.00F HX  98           
NEW YORK       MOSUNNY   83  54  36 W14G22    29.88S                  
NEWARK         MOSUNNY   81  53  37 W14G22    29.89F                  
CHICAGO        MOSUNNY   76  52  43 NE7       30.11F                  
HARTFORD       MOSUNNY   78  54  43 NW7G20    29.79R                  
BOSTON         MOSUNNY   80  52  37 NW17G23   29.79F                  
DALLAS         MOSUNNY   91  67  44 S9G16     29.95F HX  94           
PHILADELPHIA   MOSUNNY   80  55  42 NW17      29.94S                  

Return to Home page


Western Regional Climate Center, wrcc@dri.edu